BVX113A EGCC-EGPH

Flight info

Callsign BVX113A
Flight time 0h 38m
Altitude 24000
Route DESIG DCT DOMIG DCT ULSAX N601 INPIP
Aircraft B738/M-SDE2E3FGHIRWXY/LB1

Departure

Time 2026-05-04 10:13
Airport Manchester Airport (EGCC)

Arrival

Time 2026-05-04 10:52
Airport Edinburgh Airport (EGPH)
Time Latitude Longitude Altitude Speed Heading
2026-05-04 09:28 53.36695 -2.28465 254 ft 0 kts 135°
2026-05-04 09:56 53.36707 -2.28485 254 ft 4 kts 135°
2026-05-04 09:56 53.36726 -2.28517 254 ft 4 kts 135°
2026-05-04 09:56 53.36742 -2.28545 254 ft 3 kts 135°
2026-05-04 09:57 53.36760 -2.28559 254 ft 4 kts 202°
2026-05-04 09:57 53.36780 -2.28535 254 ft 4 kts 224°
2026-05-04 09:57 53.36798 -2.28505 254 ft 3 kts 224°
2026-05-04 09:57 53.36800 -2.28501 254 ft 0 kts 224°
2026-05-04 10:02 53.36583 -2.28762 254 ft 7 kts 138°
2026-05-04 10:04 53.36270 -2.28345 254 ft 9 kts 135°
2026-05-04 10:04 53.36226 -2.28272 254 ft 9 kts 135°
2026-05-04 10:04 53.36184 -2.28200 254 ft 8 kts 133°
2026-05-04 10:04 53.36144 -2.28130 254 ft 8 kts 135°
2026-05-04 10:05 53.36103 -2.28063 254 ft 8 kts 137°
2026-05-04 10:05 53.36060 -2.28001 254 ft 8 kts 140°
2026-05-04 10:05 53.36019 -2.27943 254 ft 8 kts 139°
2026-05-04 10:05 53.35979 -2.27885 254 ft 7 kts 142°
2026-05-04 10:06 53.35932 -2.27851 254 ft 8 kts 169°
2026-05-04 10:06 53.35874 -2.27853 253 ft 10 kts 185°
2026-05-04 10:06 53.35784 -2.27869 248 ft 16 kts 186°
2026-05-04 10:08 53.35225 -2.28316 231 ft 15 kts 227°
2026-05-04 10:08 53.35157 -2.28457 227 ft 17 kts 229°
2026-05-04 10:08 53.35087 -2.28602 228 ft 14 kts 232°
2026-05-04 10:08 53.35024 -2.28726 226 ft 14 kts 226°
2026-05-04 10:09 53.34954 -2.28849 225 ft 14 kts 226°
2026-05-04 10:09 53.34882 -2.28974 220 ft 17 kts 226°
2026-05-04 10:09 53.34800 -2.29127 216 ft 18 kts 231°
2026-05-04 10:09 53.34739 -2.29251 215 ft 9 kts 223°
2026-05-04 10:10 53.34683 -2.29322 213 ft 10 kts 202°
2026-05-04 10:10 53.34615 -2.29339 218 ft 10 kts 177°
2026-05-04 10:10 53.34554 -2.29294 215 ft 10 kts 133°
2026-05-04 10:10 53.34549 -2.29205 218 ft 8 kts 64°
2026-05-04 10:11 53.34570 -2.29158 216 ft 0 kts 51°
2026-05-04 10:12 53.34571 -2.29156 215 ft 2 kts 51°
2026-05-04 10:13 53.34664 -2.28964 219 ft 52 kts 51°
2026-05-04 10:13 53.35036 -2.28194 233 ft 116 kts 51°
2026-05-04 10:13 53.35650 -2.26916 365 ft 155 kts 52°
2026-05-04 10:13 53.36321 -2.25519 1071 ft 153 kts 52°
2026-05-04 10:14 53.36999 -2.24101 1735 ft 160 kts 52°
2026-05-04 10:14 53.37707 -2.22602 2294 ft 168 kts 52°
2026-05-04 10:16 53.43510 -2.10269 4991 ft 249 kts 51°
2026-05-04 10:16 53.44621 -2.07922 4965 ft 259 kts 51°
2026-05-04 10:16 53.45735 -2.05558 5007 ft 257 kts 51°
2026-05-04 10:16 53.46861 -2.03161 5208 ft 267 kts 51°
2026-05-04 10:17 53.48016 -2.00699 5982 ft 269 kts 52°
2026-05-04 10:17 53.49185 -1.98230 6762 ft 272 kts 51°
2026-05-04 10:19 53.58869 -1.84840 10834 ft 336 kts 329°
2026-05-04 10:19 53.60626 -1.87503 11285 ft 347 kts 308°
2026-05-04 10:19 53.62251 -1.90553 12021 ft 351 kts 314°
2026-05-04 10:19 53.64023 -1.93407 12803 ft 355 kts 316°
2026-05-04 10:20 53.65835 -1.96269 13568 ft 360 kts 316°
2026-05-04 10:20 53.67663 -1.99197 14310 ft 363 kts 315°
2026-05-04 10:20 53.69486 -2.02171 15057 ft 366 kts 315°
2026-05-04 10:20 53.71331 -2.05210 15683 ft 374 kts 315°
2026-05-04 10:21 53.73215 -2.08263 16412 ft 377 kts 319°
2026-05-04 10:21 53.75346 -2.10847 17205 ft 379 kts 329°
2026-05-04 10:21 53.77745 -2.12781 17849 ft 385 kts 338°
2026-05-04 10:21 53.80264 -2.14435 18513 ft 390 kts 339°
2026-05-04 10:22 53.85313 -2.17811 19804 ft 395 kts 339°
2026-05-04 10:22 53.87873 -2.19570 20399 ft 399 kts 339°
2026-05-04 10:22 53.90452 -2.21339 21002 ft 402 kts 339°
2026-05-04 10:23 53.93061 -2.23129 21605 ft 405 kts 339°
2026-05-04 10:23 53.95689 -2.24931 22204 ft 408 kts 339°
2026-05-04 10:25 54.14522 -2.37948 25959 ft 420 kts 340°
2026-05-04 10:25 54.17235 -2.39831 26047 ft 422 kts 340°
2026-05-04 10:25 54.19953 -2.41715 26057 ft 419 kts 340°
2026-05-04 10:25 54.22648 -2.43583 26050 ft 417 kts 340°
2026-05-04 10:26 54.25290 -2.45416 26064 ft 416 kts 340°
2026-05-04 10:26 54.27972 -2.47280 26071 ft 416 kts 340°
2026-05-04 10:26 54.30656 -2.49147 26066 ft 415 kts 340°
2026-05-04 10:26 54.33327 -2.51009 26065 ft 415 kts 340°
2026-05-04 10:27 54.36003 -2.52879 26066 ft 415 kts 340°
2026-05-04 10:27 54.38672 -2.54745 26065 ft 415 kts 340°
2026-05-04 10:27 54.41353 -2.56623 26072 ft 415 kts 340°
2026-05-04 10:27 54.44031 -2.58502 26070 ft 416 kts 340°
2026-05-04 10:28 54.46717 -2.60387 26062 ft 416 kts 340°
2026-05-04 10:28 54.49391 -2.62268 26069 ft 416 kts 339°
2026-05-04 10:28 54.52066 -2.64156 26067 ft 415 kts 339°
2026-05-04 10:28 54.54741 -2.66051 26057 ft 415 kts 339°
2026-05-04 10:29 54.57417 -2.67953 26059 ft 414 kts 339°
2026-05-04 10:29 54.60064 -2.69836 26064 ft 413 kts 339°
2026-05-04 10:29 54.62698 -2.71713 26061 ft 413 kts 339°
2026-05-04 10:29 54.65354 -2.73606 26056 ft 413 kts 339°
2026-05-04 10:30 54.68004 -2.75498 26055 ft 412 kts 339°
2026-05-04 10:30 54.70657 -2.77394 26062 ft 412 kts 339°
2026-05-04 10:30 54.73305 -2.79287 26062 ft 411 kts 339°
2026-05-04 10:30 54.75951 -2.81176 26062 ft 410 kts 339°
2026-05-04 10:31 54.78584 -2.83058 26060 ft 410 kts 339°
2026-05-04 10:31 54.81223 -2.84948 26070 ft 410 kts 339°
2026-05-04 10:32 54.96965 -2.96309 24029 ft 402 kts 338°
2026-05-04 10:33 54.99541 -2.98183 23424 ft 400 kts 338°
2026-05-04 10:33 55.02105 -3.00051 22817 ft 397 kts 338°
2026-05-04 10:33 55.04610 -3.01877 22249 ft 393 kts 338°
2026-05-04 10:33 55.07122 -3.03712 21698 ft 390 kts 338°
2026-05-04 10:34 55.09621 -3.05538 21148 ft 386 kts 337°
2026-05-04 10:34 55.12091 -3.07346 20622 ft 383 kts 337°
2026-05-04 10:34 55.14540 -3.09141 20079 ft 380 kts 337°
2026-05-04 10:34 55.16970 -3.10922 19521 ft 379 kts 337°
2026-05-04 10:35 55.19402 -3.12706 18946 ft 378 kts 336°
2026-05-04 10:35 55.21817 -3.14478 18390 ft 377 kts 336°
2026-05-04 10:35 55.24234 -3.16254 17752 ft 376 kts 336°
2026-05-04 10:35 55.26643 -3.18027 17128 ft 374 kts 336°
2026-05-04 10:36 55.29048 -3.19715 16537 ft 373 kts 341°
2026-05-04 10:36 55.31617 -3.20291 15993 ft 373 kts
2026-05-04 10:36 55.34201 -3.19956 15431 ft 372 kts
2026-05-04 10:36 55.36772 -3.19513 14853 ft 370 kts
2026-05-04 10:37 55.39328 -3.19055 14295 ft 369 kts
2026-05-04 10:37 55.41879 -3.18610 13726 ft 367 kts
2026-05-04 10:37 55.44422 -3.18181 13106 ft 365 kts
2026-05-04 10:37 55.46940 -3.17771 12522 ft 363 kts
2026-05-04 10:39 55.61599 -3.15454 9924 ft 329 kts
2026-05-04 10:39 55.63815 -3.15103 9820 ft 316 kts
2026-05-04 10:39 55.65986 -3.14758 9728 ft 304 kts
2026-05-04 10:40 55.68029 -3.14038 9626 ft 298 kts 18°
2026-05-04 10:40 55.69926 -3.12560 9265 ft 298 kts 22°
2026-05-04 10:40 55.71804 -3.11030 8863 ft 294 kts 22°
2026-05-04 10:40 55.73663 -3.09513 8217 ft 295 kts 21°
2026-05-04 10:41 55.75525 -3.07984 7623 ft 294 kts 22°
2026-05-04 10:41 55.77364 -3.06504 7050 ft 293 kts 19°
2026-05-04 10:41 55.79271 -3.05197 6449 ft 292 kts 17°
2026-05-04 10:41 55.81179 -3.03960 5844 ft 291 kts 17°
2026-05-04 10:42 55.83054 -3.02766 5516 ft 281 kts 17°
2026-05-04 10:42 55.84870 -3.01613 5169 ft 273 kts 17°
2026-05-04 10:42 55.86638 -3.00488 4809 ft 266 kts 17°
2026-05-04 10:42 55.88360 -2.99390 4475 ft 260 kts 17°
2026-05-04 10:43 55.90034 -2.98327 4358 ft 252 kts 16°
2026-05-04 10:44 56.01233 -2.91904 3004 ft 200 kts 342°
2026-05-04 10:45 56.02525 -2.92645 2995 ft 192 kts 339°
2026-05-04 10:45 56.03794 -2.93369 3007 ft 192 kts 339°
2026-05-04 10:45 56.05055 -2.94157 3010 ft 192 kts 335°
2026-05-04 10:45 56.06244 -2.95208 2980 ft 189 kts 315°
2026-05-04 10:46 56.06859 -2.97158 2997 ft 181 kts 277°
2026-05-04 10:46 56.06904 -2.99392 3003 ft 180 kts 269°
2026-05-04 10:46 56.06826 -3.01631 2988 ft 183 kts 255°
2026-05-04 10:46 56.06222 -3.03638 3007 ft 185 kts 241°
2026-05-04 10:47 56.05662 -3.05712 3008 ft 184 kts 246°
2026-05-04 10:47 56.05040 -3.07721 2996 ft 186 kts 240°
2026-05-04 10:47 56.04366 -3.09688 2995 ft 185 kts 240°
2026-05-04 10:47 56.03694 -3.11649 2997 ft 184 kts 240°
2026-05-04 10:49 55.99952 -3.22643 1862 ft 139 kts 241°
2026-05-04 10:49 55.99443 -3.24132 1637 ft 142 kts 241°
2026-05-04 10:50 55.98951 -3.25590 1453 ft 133 kts 241°
2026-05-04 10:51 55.95687 -3.35213 235 ft 130 kts 241°
2026-05-04 10:52 55.95235 -3.36546 110 ft 115 kts 242°
2026-05-04 10:52 55.94922 -3.37480 111 ft 57 kts 239°
2026-05-04 10:52 55.94823 -3.37772 113 ft 10 kts 239°
2026-05-04 10:54 55.94596 -3.37884 113 ft 0 kts 70°
2026-05-04 10:56 55.94846 -3.37129 115 ft 18 kts 58°
2026-05-04 10:56 55.94912 -3.36938 113 ft 18 kts 58°
2026-05-04 10:56 55.94974 -3.36752 114 ft 17 kts 59°
2026-05-04 10:57 55.95035 -3.36575 112 ft 16 kts 59°
2026-05-04 10:57 55.95093 -3.36404 114 ft 16 kts 59°
2026-05-04 10:57 55.95136 -3.36267 112 ft 12 kts 71°
2026-05-04 10:57 55.95118 -3.36129 114 ft 11 kts 109°
2026-05-04 10:58 55.95093 -3.35997 112 ft 11 kts 109°
2026-05-04 10:58 55.95059 -3.35882 114 ft 10 kts 120°
2026-05-04 10:58 55.95013 -3.35835 113 ft 8 kts 199°
2026-05-04 10:58 55.94976 -3.35862 113 ft 0 kts 190°
2026-05-04 10:59 55.94974 -3.35862 113 ft 1 kts 188°
2026-05-04 10:59 55.94969 -3.35861 114 ft 1 kts 179°
2026-05-04 10:59 55.94948 -3.35851 114 ft 5 kts 155°
2026-05-04 10:59 55.94922 -3.35861 113 ft 4 kts 225°
2026-05-04 11:00 55.94910 -3.35905 114 ft 4 kts 252°
2026-05-04 11:01 55.94896 -3.35987 112 ft 1 kts 254°
2026-05-04 11:02 55.94895 -3.35996 112 ft 1 kts 254°